[[{"header":{"parameterUnit":"m.s-1","parameterCategory":1,"la1":30.2991,"la2":30.254,"lo1":-89.0895,"lo2":-89.0444,"dy":0.0017,"dx":0.0017,"nx":28,"ny":28,"refTime":"2023-06-27T21:00:00:Z","depth":0,"parameterNumber":2,"parameterNumberName":"U-component_of_WINDS"},"data":[0,0,0,0,0,0,0,0,0,0,0,0,0,0,0,0,0,0,0,0,0,0,0,0,0,0,0,0,0,0,0,0,0,0,0,0,0,0,0,0,0,0,0,0,0,0,0,0,0,0,0,0,0,0,0,0,0,0,1.7525,1.7526,0,1.7603,1.7604,1.7605,1.7603,1.7602,1.7601,1.76,1.7689,1.7692,1.7695,0,0,0,0,0,0,0,0,0,0,0,0,0,1.7383,1.7386,1.7525,1.7526,1.7527,1.7603,1.7604,1.7605,1.7603,1.7602,1.76,1.7599,1.7688,1.7692,1.7696,0,0,0,0,0,0,0,0,0,0,0,0,0,1.7452,1.7387,1.7525,1.7535,1.7536,1.7602,1.7604,1.7605,1.7603,1.7602,1.76,1.7598,1.7686,1.7691,1.7696,1.776,0,0,1.7712,1.7714,0,0,0,0,0,0,0,0,1.7448,1.7457,1.7532,1.7534,1.7536,1.7591,1.7587,1.7658,1.7604,1.7578,1.76,1.7598,1.7658,1.7665,1.7684,1.7764,1.7768,1.7712,1.7715,1.7717,1.7719,0,0,0,0,0,0,0,1.7443,1.7453,1.7556,1.7533,1.7536,1.7538,1.7546,1.76,1.7627,1.758,1.758,1.7589,1.7659,1.7679,1.7686,1.777,1.7712,1.7717,1.772,1.7722,1.7911,1.7912,0,0,0,0,0,0,1.7435,1.7449,1.7553,1.7558,1.7487,1.7542,1.7551,1.7575,1.7626,1.7632,1.759,1.7589,1.7671,1.768,1.7689,1.7771,1.7717,1.7722,1.7725,1.7909,1.7911,1.7913,0,0,0,0,0,0,1.7432,1.7444,1.755,1.7504,1.7517,1.7546,1.7574,1.7578,1.7598,1.7633,1.7639,1.7605,1.767,1.7682,1.7743,1.7774,1.7724,1.7729,1.7906,1.7909,1.7912,1.7932,0,0,0,0,0,0,1.7428,1.7443,1.7465,1.7504,1.752,1.76,1.7575,1.758,1.7605,1.7604,1.7649,1.7655,1.767,1.7735,1.7748,1.778,1.7733,1.7904,1.7908,1.7911,1.7929,1.7936,1.7941,0,0,0,0,0,1.7423,1.7469,1.7466,1.7479,1.7548,1.7601,1.7611,1.7624,1.7608,1.7633,1.7656,1.7654,1.7767,1.7741,1.7756,1.779,1.7902,1.7907,1.7911,1.7927,1.7934,1.7941,0,0,0,0,0,0,1.7436,1.7474,1.7472,1.7532,1.7563,1.7601,1.7632,1.7632,1.7671,1.7668,1.7685,1.7696,1.7758,1.7779,1.775,1.7856,1.7833,1.7841,1.784,1.7848,1.7854,1.785,1.7737,0,0,0,0,0,1.7445,1.7482,1.7515,1.7565,1.7581,1.7604,1.7627,1.7635,1.7669,1.7683,1.7711,1.7747,1.7791,1.782,1.7862,1.7931,1.7944,1.7962,1.7968,1.7972,1.798,1.8022,1.8032,1.7928,1.7928,1.7928,0,0,1.7467,1.7492,1.7515,1.7569,1.7594,1.7635,1.7615,1.7659,1.7692,1.7691,1.775,1.7772,1.7814,1.7879,1.791,1.79,1.8011,1.7978,1.7982,1.7987,1.8028,1.8038,1.8047,1.7931,1.793,1.793,0,0,1.7527,1.7548,1.7593,1.7618,1.7656,1.7671,1.7682,1.772,1.7733,1.7792,1.7793,1.7833,1.7908,1.7938,1.7964,1.8036,1.8038,1.8049,1.8083,1.8123,1.8132,1.8139,1.8169,1.8179,1.8056,1.8056,1.8056,0,1.755,1.7609,1.7618,1.7663,1.7688,1.7685,1.7734,1.7759,1.781,1.7829,1.7815,1.791,1.7938,1.8013,1.803,1.8049,1.8066,1.8046,1.8129,1.8137,1.8144,1.8173,1.8184,1.8057,1.8057,1.8057,1.8057,0,1.7638,1.7679,1.7712,1.7758,1.7787,1.7833,1.7852,1.788,1.7885,1.7902,1.7964,1.7997,1.8047,1.8065,1.807,1.8142,1.8134,1.8124,1.8103,1.8155,1.8183,1.8194,1.806,1.8059,1.8059,1.8058,0,0,1.7712,1.7761,1.7773,1.7796,1.7836,1.7871,1.7918,1.7964,1.7991,1.8025,1.8069,1.8131,1.8123,1.8152,1.8161,1.8196,1.8256,1.8182,1.8184,1.8199,1.8342,1.8352,1.8365,1.8255,1.8257,1.8259,1.834,0,1.778,1.7861,1.787,1.7945,1.7986,1.7984,1.8026,1.8058,1.8075,1.8115,1.8135,1.8182,1.8164,1.8182,1.8216,1.8241,1.8286,1.8235,1.8301,1.8303,1.8295,1.8379,1.839,1.8464,1.835,1.8352,1.8353,0,1.7871,1.7906,1.7984,1.8021,1.8039,1.8076,1.8121,1.8157,1.8194,1.8204,1.8236,1.8241,1.8294,1.8266,1.8343,1.8308,1.8335,1.8351,1.8355,1.8366,1.8335,1.8396,1.8488,1.8501,1.837,1.8368,1.8367,0,1.7923,1.7989,1.8046,1.8064,1.8107,1.8134,1.8154,1.8189,1.8217,1.8256,1.8276,1.8321,1.8348,1.8385,1.8404,1.8381,1.8481,1.8453,1.8495,1.8495,1.852,1.852,1.8623,1.853,1.8529,1.8529,1.8529,0,1.8001,1.805,1.807,1.8105,1.8161,1.8171,1.8227,1.8247,1.8278,1.8319,1.832,1.836,1.8379,1.8423,1.8438,1.8502,1.8512,1.8526,1.853,1.8529,1.8528,1.8551,1.8548,1.8532,1.8532,1.8531,1.853,0,1.8071,1.8085,1.8147,1.8181,1.8192,1.8232,1.8264,1.83,1.8315,1.8368,1.8382,1.8409,1.846,1.8481,1.8545,1.8555,1.863,1.8627,1.8617,1.8619,1.8662,1.8659,1.8787,1.8807,1.8696,1.8697,1.8698,0,1.8122,1.8159,1.8198,1.8224,1.8244,1.8287,1.8315,1.8327,1.8357,1.8402,1.8434,1.8484,1.8526,1.8609,1.8637,1.8687,1.8689,1.873,1.8697,1.8695,1.8696,1.8695,1.8701,1.8738,1.8739,1.874,1.8741,0,1.8213,1.8218,1.8257,1.8299,1.8332,1.8366,1.84,1.8422,1.844,1.8474,1.8525,1.8557,1.8621,1.8674,1.8725,1.8749,1.8751,1.875,1.8764,1.8765,1.8759,1.8768,1.8639,1.8749,1.8748,1.8747,1.8747,1.8747,1.8279,1.8313,1.8346,1.839,1.8415,1.8447,1.8483,1.8503,1.8544,1.8596,1.8601,1.8657,1.8696,1.8764,1.879,1.8837,1.8827,1.8845,1.8851,1.8856,1.8862,1.8747,1.8846,1.8846,1.8846,1.8845,1.8845,0,1.8374,1.8395,1.8435,1.8481,1.8516,1.8508,1.8545,1.8577,1.8626,1.8659,1.87,1.8761,1.8811,1.8842,1.8894,1.8926,1.8928,1.894,1.894,1.8947,1.8865,1.8851,1.8937,1.8937,1.8937,1.8937,1.8937,1.8937,1.8429,1.8488,1.8497,1.857,1.859,1.8643,1.8666,1.8696,1.8724,1.879,1.8831,1.8849,1.8884,1.8938,1.8985,1.8993,1.9015,1.9029,1.9037,1.8961,1.8952,1.8943,1.893,1.9032,1.9032,1.9115,1.9116,1.9117]},{"header":{"parameterUnit":"m.s-1","parameterCategory":1,"la1":30.2991,"la2":30.254,"lo1":-89.0895,"lo2":-89.0444,"dy":0.0017,"dx":0.0017,"nx":28,"ny":28,"refTime":"2023-06-27T21:00:00:Z","depth":0,"parameterNumber":3,"parameterNumberName":"V-component_of_WINDS"},"data":[0,0,0,0,0,0,0,0,0,0,0,0,0,0,0,0,0,0,0,0,0,0,0,0,0,0,0,0,0,0,0,0,0,0,0,0,0,0,0,0,0,0,0,0,0,0,0,0,0,0,0,0,0,0,0,0,0,0,0.59,0.59,0,0.5869,0.5868,0.5868,0.5822,0.5821,0.582,0.5819,0.5789,0.5788,0.5788,0,0,0,0,0,0,0,0,0,0,0,0,0,0.592,0.592,0.59,0.59,0.5899,0.5869,0.5868,0.5868,0.5822,0.5821,0.582,0.5819,0.5789,0.5788,0.5788,0,0,0,0,0,0,0,0,0,0,0,0,0,0.5902,0.592,0.59,0.5873,0.587,0.5869,0.5868,0.5868,0.5822,0.5821,0.582,0.5819,0.5789,0.5788,0.5788,0.5812,0,0,0.5788,0.5788,0,0,0,0,0,0,0,0,0.5904,0.5902,0.5877,0.5875,0.5871,0.5848,0.5864,0.5849,0.5822,0.584,0.5819,0.5818,0.5809,0.5807,0.5804,0.5811,0.5809,0.5788,0.5788,0.5788,0.5788,0,0,0,0,0,0,0,0.5905,0.5903,0.5888,0.5877,0.5873,0.5862,0.5858,0.5861,0.5832,0.5839,0.5835,0.5832,0.5808,0.5804,0.5803,0.5809,0.5788,0.5788,0.5788,0.5788,0.5831,0.5832,0,0,0,0,0,0,0.591,0.5904,0.5889,0.5887,0.5885,0.5862,0.5858,0.5857,0.5832,0.5827,0.5833,0.583,0.5805,0.5803,0.5802,0.5826,0.5788,0.5788,0.5788,0.5829,0.5831,0.5832,0,0,0,0,0,0,0.5911,0.5909,0.589,0.5894,0.5891,0.5863,0.5862,0.5857,0.5853,0.5828,0.5822,0.5835,0.5804,0.5802,0.5809,0.5825,0.5788,0.5788,0.5828,0.583,0.5831,0.5876,0,0,0,0,0,0,0.5911,0.591,0.5918,0.5895,0.5891,0.5898,0.5863,0.5857,0.5853,0.5849,0.5828,0.5824,0.5803,0.581,0.5809,0.5824,0.5788,0.5826,0.5829,0.5831,0.5873,0.5879,0.5885,0,0,0,0,0,0.5912,0.5933,0.5919,0.5918,0.5902,0.5899,0.5897,0.5872,0.5855,0.5863,0.5846,0.5824,0.5823,0.5811,0.581,0.5825,0.5825,0.5828,0.5831,0.5871,0.5878,0.5884,0,0,0,0,0,0,0.596,0.593,0.5914,0.5928,0.5916,0.5891,0.5901,0.5881,0.5875,0.5871,0.5841,0.5837,0.5847,0.5837,0.5824,0.5845,0.5821,0.5823,0.5852,0.5858,0.5864,0.5866,0.5788,0,0,0,0,0,0.5972,0.5973,0.5946,0.5961,0.5956,0.593,0.5928,0.5909,0.5896,0.5891,0.5875,0.5864,0.586,0.5859,0.5855,0.5872,0.5866,0.5881,0.5887,0.5892,0.5894,0.59,0.5906,0.5841,0.5841,0.5841,0,0,0.5997,0.5981,0.5983,0.597,0.5959,0.5959,0.5926,0.5928,0.5928,0.5892,0.5897,0.5885,0.587,0.5881,0.5886,0.5873,0.5911,0.5895,0.5899,0.5899,0.5904,0.591,0.5915,0.5843,0.5842,0.5842,0,0,0.6043,0.6031,0.6041,0.603,0.6013,0.5995,0.5998,0.5976,0.5966,0.597,0.5942,0.5942,0.5937,0.5927,0.5921,0.5961,0.594,0.5961,0.599,0.5996,0.6002,0.6006,0.6019,0.6024,0.5963,0.5964,0.5964,0,0.6077,0.6076,0.6049,0.6052,0.6047,0.6013,0.6022,0.6013,0.5997,0.5993,0.5979,0.5971,0.5959,0.5967,0.5976,0.5973,0.5974,0.5963,0.6003,0.6007,0.6011,0.6022,0.6027,0.5966,0.5966,0.5965,0.5965,0,0.6117,0.6117,0.6127,0.611,0.6106,0.6113,0.6086,0.6085,0.6067,0.605,0.6054,0.6038,0.6029,0.603,0.6013,0.6035,0.6027,0.6008,0.5983,0.602,0.603,0.6035,0.597,0.5969,0.5968,0.5967,0,0,0.6193,0.6159,0.6163,0.6154,0.6133,0.6132,0.6137,0.6127,0.6126,0.6115,0.6117,0.6113,0.6095,0.6089,0.607,0.6076,0.6106,0.6056,0.6055,0.6065,0.6127,0.614,0.6146,0.6092,0.6093,0.6094,0.6128,0,0.6233,0.6238,0.6213,0.6225,0.6224,0.6191,0.6195,0.6182,0.6166,0.6163,0.6145,0.6142,0.612,0.6115,0.6119,0.6102,0.6118,0.6099,0.6093,0.6093,0.6097,0.6152,0.6166,0.6199,0.6132,0.6132,0.6133,0,0.6281,0.6271,0.6283,0.6258,0.6257,0.6261,0.6249,0.6246,0.623,0.6218,0.621,0.6188,0.619,0.6166,0.6168,0.6155,0.6151,0.6142,0.6143,0.6141,0.6115,0.615,0.6209,0.6214,0.6139,0.6139,0.6138,0,0.6333,0.6323,0.6328,0.6321,0.6294,0.6297,0.6285,0.6268,0.6263,0.6253,0.6249,0.6239,0.6234,0.6227,0.6202,0.6188,0.6206,0.6181,0.6196,0.6196,0.62,0.62,0.6259,0.62,0.62,0.62,0.62,0,0.638,0.6388,0.635,0.6353,0.6361,0.6332,0.634,0.6325,0.631,0.6309,0.6281,0.628,0.6249,0.6245,0.6226,0.6229,0.6227,0.6217,0.6211,0.6219,0.622,0.6215,0.6212,0.6201,0.6201,0.6201,0.62,0,0.6439,0.6414,0.6417,0.639,0.6384,0.639,0.6367,0.6368,0.635,0.6349,0.6347,0.632,0.6313,0.6288,0.6276,0.6263,0.6272,0.6263,0.6277,0.6274,0.6289,0.6287,0.6346,0.6351,0.629,0.6291,0.6292,0,0.647,0.6475,0.6448,0.6445,0.6435,0.6431,0.6425,0.6396,0.6391,0.6372,0.6376,0.6367,0.6358,0.6349,0.6328,0.6318,0.6307,0.6328,0.6306,0.6312,0.6306,0.6305,0.6305,0.6333,0.6334,0.6335,0.6335,0,0.6527,0.6514,0.6507,0.6495,0.6489,0.6479,0.6466,0.6466,0.6434,0.643,0.6422,0.6415,0.6402,0.6393,0.6379,0.6367,0.6346,0.6342,0.6345,0.6352,0.6359,0.6354,0.6289,0.6341,0.6341,0.634,0.634,0.634,0.6572,0.6574,0.6555,0.6547,0.6535,0.6524,0.6523,0.6505,0.6498,0.6484,0.6468,0.6462,0.6444,0.6423,0.6413,0.6407,0.6396,0.64,0.6401,0.6402,0.6404,0.6361,0.6405,0.6405,0.6405,0.6404,0.6404,0,0.6626,0.6612,0.6605,0.6588,0.6582,0.6562,0.6547,0.6543,0.6538,0.6523,0.6515,0.6505,0.6496,0.6473,0.6462,0.6462,0.6451,0.646,0.6459,0.6456,0.6417,0.6415,0.6468,0.6468,0.6468,0.6468,0.6468,0.6468,0.6654,0.6656,0.664,0.6635,0.6621,0.6615,0.6607,0.6597,0.6584,0.6575,0.6567,0.6552,0.6533,0.652,0.651,0.6503,0.65,0.6511,0.6501,0.6465,0.6459,0.6453,0.6451,0.6511,0.6511,0.6541,0.6541,0.6541]}]]